User: anonymous
Location: Fort Wayne
(41.1310°N, 85.1290°W)
Time: 04:25:58
(UTC-04:00)
Language:

Oscar 19 - Orbit

View from above orbital plane
View from above orbital plane
View from above satellite
View from above satellite

Ground track
Ground track

The orbit data is extracted from the following two-line orbital elements,

1 20442U 90005G   14274.79752871  .00000225  00000-0  98653-4 0   748
2 20442 098.4849 210.4912 0011848 187.2913 172.8100 14.32595112289942
Epoch (UTC): 01 October 2014 19:08:26
Eccentricity: 0.0011848
inclination: 98.4849°
perigee height: 774 km
apogee height: 791 km
right ascension of ascending node: 210.4912°
argument of perigee: 187.2913°
revolutions per day: 14.32595112
mean anomaly at epoch: 172.8100°
orbit number at epoch: 28994

The dashed part of the orbit path shows where the satellite is in the earth's shadow,  

DLR